Simultaneous Nadir Overpasses (SNOs) Predictions

Prediction of SNOs between AQUA and METOP-A Satellite Orbit:

Table of predicted SNOs for the next 14.0 days since TLE Epoch: 6/27/2014
Index Date (AQUA) Time (AQUA) Lat,Lon (AQUA) SZA (AQUA ) Date (METOP-A) Time (METOP-A) Lat,Lon (METOP-A) SZA (METOP-A ) Distance(km) Time Diff (sec)
1 06/28/2014 00:28:52 -73.82, -12.88 129.44 06/28/2014 00:27:44 -73.82, -12.79 129.43 2.65 68
2 06/28/2014 01:18:21 73.89, 154.60 50.64 06/28/2014 01:18:23 73.88, 154.66 50.62 2.58 2
3 06/28/2014 02:07:49 -74.02, -38.05 129.22 06/28/2014 02:09:01 -74.05, -37.57 129.21 14.96 72
4 06/30/2014 20:03:09 -73.83, 53.54 129.28 06/30/2014 20:02:10 -73.82, 53.60 129.27 1.89 59
5 06/30/2014 20:52:37 73.85,-138.87 50.76 06/30/2014 20:52:49 73.86,-138.96 50.77 3.28 12
6 06/30/2014 21:42:12 -74.34, 27.65 128.72 06/30/2014 21:43:21 -74.34, 29.56 128.79 57.18 69
7 07/03/2014 15:37:25 -73.79, 120.04 129.10 07/03/2014 15:36:36 -73.81, 119.98 129.07 3.09 49
8 07/03/2014 16:26:54 73.87, -72.49 50.99 07/03/2014 16:27:14 73.90, -72.48 51.02 3.23 20
9 07/06/2014 11:11:41 -73.82,-173.59 128.80 07/06/2014 11:11:01 -73.80,-173.65 128.81 2.97 40
10 07/06/2014 12:01:10 73.91, -6.14 51.30 07/06/2014 12:01:39 73.88, -6.12 51.27 2.85 29
11 07/09/2014 06:45:57 -73.81,-107.14 128.50 07/09/2014 06:45:26 -73.83,-107.17 128.47 2.41 31
12 07/09/2014 07:35:26 73.90, 60.30 51.61 07/09/2014 07:36:04 73.91, 60.35 51.61 1.78 38




NCC Satellite Simultaneous Nadir Overpasses (SNOs) Prediction Service
